Find Starlink 5644

NORAD ID: 55369 Int'l Des: 2023-013 Owner: SPXS Country: US Constellation: starlink operational
LEOCIRCULAR

Aktuelle Ansicht

3D-Globus wird geladen...

Über Starlink 5644

Beschreibung wird geladen...

Nächste Überflüge

Passes for default location (London). Set your location on the main map for personalized predictions.

Höhenverlauf

Loading altitude history...

Zweizeiliger Elementsatz

1 55369U 23013AQ 26151.18971164 -.00000608 00000-0 -12576-4 0 9990
2 55369 43.0004 215.3436 0001061 247.1703 112.9036 15.27560946184085
Epoch: 31. Mai 2026 • Age: 12 hours

Aktueller Status

Höhe 487.4 km
Geschwindigkeit 7.62 km/s
Subsatellitenpunkt -21.28°S, 79.02°W
Startdatum 26. Jan. 2023
Alter 3.3 years
Typ internet

Technische Details

Klassifizierung Payload
Masse 305.00 kg
Trockenmasse 290.00 kg
Gesamtmasse 305.00 kg
Länge 0.20 m
Durchmesser 2.80 m
Spannweite 9.00 m
Form Box + pan
Hersteller SPXS
Bus-Typ Starlink
Phasenstatus In Orbit
Besitzer/Staat SPXS/US

Most Searched